Helicity
89 90 100 139 113 112 202 234 349 203 210 124 143 259 273 221 183 170 176 202 177 141 132 124 106 85 65 63 62 64 62 58 60 58 60 64 57 53 50 48 42 38 28 26
206 90 75 123 164 106 110 91 169 168 168 159 306 261 212 224 191 202 220 198 159 130 122 112 88 64 58 64 64 62 52 57 57 54 61 62 58 52 50 49 44 42 41 40
167 159 153 121 59 91 182 214 236 276 311 372 305 259 247 226 208 225 223 171 136 126 116 93 75 67 64 71 65 54 55 56 53 55 64 64 59 54 52 52 46 55 50 40
211 159 132 202 279 256 171 218 277 202 236 296 288 240 218 190 275 231 184 148 137 124 95 73 68 71 77 76 67 65 62 57 63 69 70 66 61 62 62 64 59 61 58 50
150 174 141 61 201 205 261 336 265 257 257 345 283 236 187 389 279 213 173 164 136 100 80 69 69 80 76 71 68 67 63 69 74 71 71 72 69 66 76 68 66 67 59 50
300 258 243 279 248 300 276 254 291 332 349 322 298 277 244 296 219 186 164 142 114 81 69 67 79 86 72 72 73 70 77 77 76 72 71 73 66 68 76 68 75 71 63 70
198 331 238 399 298 257 286 340 361 290 310 269 248 224 260 201 175 161 133 112 91 76 72 72 78 88 76 73 76 79 80 76 77 75 71 65 57 69 71 71 65 60 50 69
301 343 212 292 345 307 360 377 330 295 284 229 210 206 183 169 153 130 113 93 86 87 82 75 80 91 82 82 78 78 76 73 76 67 77 70 49 60 59 61 55 44 33 54
306 280 353 178 377 335 316 340 293 267 252 217 190 179 164 147 124 110 100 96 90 92 82 77 82 88 86 76 71 69 72 76 79 62 69 63 54 52 61 65 -3 5 11 29
361 283 260 249 354 300 280 310 286 269 230 189 176 162 137 123 114 108 100 94 89 91 88 80 74 71 69 69 63 68 70 74 81 61 51 53 73 75 62 -10 -6 -0 20 34
256 235 266 278 280 276 285 271 255 211 192 180 158 142 127 115 105 105 96 90 91 85 87 72 65 64 62 61 63 66 75 83 75 59 69 69 64 19 2 26 12 21 36 53
276 368 364 360 281 238 244 225 208 190 172 162 136 125 116 97 100 98 90 83 82 76 72 66 65 62 62 64 63 69 87 90 66 28 35 38 33 69 52 28 43 42 48 15
329 333 352 288 270 235 214 202 189 179 168 152 134 114 97 89 92 82 83 77 77 69 65 64 62 70 66 67 70 75 82 80 39 -0 13 48 70 46 79 117 60 42 46 23
286 264 293 207 218 206 198 182 171 156 138 126 111 100 94 93 82 86 80 70 63 61 61 62 72 70 62 69 75 73 75 -8 -20 -1 38 70 53 53 38 51 80 104 77 46
235 259 280 242 217 191 169 158 150 140 126 107 104 98 94 79 80 76 66 65 60 59 66 74 70 70 69 83 85 66 25 1 6 21 41 49 39 40 33 35 40 66 53 3
235 247 212 203 174 152 146 148 132 119 107 105 104 100 82 72 70 62 65 70 71 78 69 67 62 71 96 103 66 60 10 25 13 2 41 51 45 37 35 37 50 61 45 14
246 210 170 147 123 136 142 128 106 100 101 103 95 79 70 67 64 66 68 67 63 67 65 63 71 109 113 73 -0 -8 -8 21 41 27 54 61 55 45 50 61 79 68 52 13
195 185 138 129 140 131 118 105 100 105 104 84 74 67 65 66 68 57 63 61 52 52 58 66 84 86 88 26 -17 -25 -11 18 53 74 91 82 61 57 54 64 85 59 15 7
150 160 161 160 139 121 108 106 102 95 85 74 67 62 51 48 57 59 61 60 49 60 68 95 37 58 44 23 -8 -18 7 50 79 92 92 99 86 54 47 69 66 39 3 29
165 155 149 133 113 109 111 112 95 78 72 69 59 55 60 58 60 55 52 57 60 86 68 81 13 18 40 7 19 -4 28 66 92 109 113 73 66 78 82 85 55 2 15 33
139 128 127 118 115 112 108 97 79 71 66 59 60 66 59 53 56 55 46 60 57 50 49 28 -26 43 -26 -16 -13 7 39 74 96 122 93 82 98 81 99 42 4 11 27 43
128 119 114 110 108 108 102 79 66 58 55 53 60 61 56 44 44 52 48 65 64 15 48 44 82 13 -17 2 -13 24 52 75 107 94 93 87 77 78 96 27 14 19 37 50
119 110 102 101 100 89 76 68 67 50 52 54 57 59 59 50 38 49 65 53 49 44 17 22 -20 6 19 -11 14 46 63 84 114 99 113 82 79 76 84 35 20 28 44 60
114 101 100 102 96 89 86 78 54 50 53 45 48 60 53 59 47 50 39 25 3 -0 -8 -20 -28 -6 -0 4 29 54 71 97 111 105 130 98 79 78 94 47 30 40 55 74
96 98 92 87 97 95 75 64 49 47 43 37 43 45 40 38 51 55 51 44 6 -1 -5 -34 -19 -7 -4 13 38 56 72 83 87 97 143 138 101 85 84 85 54 61 78 89
78 90 98 91 83 80 69 57 63 50 32 38 36 39 25 26 31 26 30 13 26 -5 -2 -17 -29 -28 -11 3 20 47 74 110 146 141 167 197 130 117 107 115 116 105 92 87
85 78 87 74 70 64 56 45 56 43 31 33 37 33 22 22 22 20 12 20 23 17 5 -10 -24 -34 -29 -12 14 37 63 102 118 140 185 232 213 154 149 131 118 109 88 78
Wind_Speed
51 54 56 54 54 50 48 46 56 61 62 60 63 68 64 62 63 68 69 68 71 75 75 73 68 69 72 73 75 77 80 79 77 74 69 68 72 73 76 78 80 81 83 82
65 57 57 60 55 48 45 45 50 58 66 57 54 57 63 64 68 71 71 72 74 76 76 72 70 70 73 73 76 80 82 82 80 77 74 73 74 75 77 81 81 80 81 83
76 64 70 73 48 47 44 46 50 65 61 56 61 64 67 68 72 71 70 74 77 77 75 70 69 71 74 75 78 82 84 84 83 81 80 77 76 77 78 80 81 80 80 82
72 70 79 56 51 52 51 51 52 51 56 60 62 65 66 66 66 66 74 76 75 74 69 68 68 70 73 75 78 80 83 84 85 84 81 78 75 72 73 76 78 78 79 80
64 68 75 64 51 55 60 67 54 54 55 58 63 70 76 59 61 71 75 74 73 70 67 67 68 71 76 77 78 81 83 86 88 86 83 77 71 69 71 77 77 76 77 80
60 74 82 66 50 50 55 82 50 53 59 65 70 88 75 67 71 74 72 72 72 69 68 67 70 73 76 77 80 82 86 89 87 84 80 75 69 69 71 71 70 76 76 75
58 69 70 54 47 47 75 81 56 60 63 65 72 70 70 71 73 71 72 72 69 67 69 70 73 75 75 78 82 84 87 86 83 81 77 70 68 67 67 70 73 74 76 74
55 67 84 39 45 65 65 62 60 61 62 66 65 67 70 71 72 72 73 71 69 71 71 73 75 76 79 82 84 85 84 84 83 80 75 69 66 64 65 66 71 72 74 76
49 61 53 34 59 57 59 62 61 61 59 61 65 69 71 73 70 70 71 71 71 72 74 75 76 78 82 84 86 86 85 84 82 78 73 65 63 60 59 48 61 65 67 72
63 59 55 57 54 55 56 55 54 55 57 60 66 68 70 69 70 71 70 73 72 75 76 78 80 81 82 85 85 86 86 85 82 79 77 70 57 42 26 50 57 59 59 61
64 63 62 60 53 50 51 49 51 54 57 60 63 66 66 69 70 70 71 71 72 75 76 80 83 83 83 83 85 85 83 82 82 80 75 75 67 23 44 46 47 56 55 55
70 62 60 60 49 46 48 50 51 55 59 58 59 64 65 69 69 69 71 71 73 76 79 81 82 82 83 81 81 81 83 83 87 88 84 77 62 52 51 50 56 56 55 53
61 52 51 46 45 45 45 48 50 54 56 60 58 61 64 69 66 69 67 72 76 79 78 80 81 82 80 79 80 82 83 87 89 84 75 67 58 58 61 59 54 50 51 51
41 41 52 45 50 42 44 47 50 51 52 56 60 61 63 66 67 68 71 73 74 75 77 78 79 79 78 80 82 84 81 90 83 77 66 63 61 58 56 56 53 50 48 47
41 44 44 37 38 42 44 48 52 54 56 59 59 61 62 65 68 70 70 72 74 74 75 77 77 77 79 81 82 83 93 84 77 71 66 62 59 56 54 53 50 47 46 39
37 38 37 41 43 43 44 48 52 54 57 60 62 61 60 61 64 67 69 72 77 78 76 75 75 77 78 79 85 89 86 74 73 66 61 58 55 54 52 51 48 46 43 38
40 43 40 41 42 43 46 47 49 53 57 58 59 57 59 64 67 69 70 70 68 68 68 69 76 73 72 84 94 83 77 68 63 59 56 54 53 52 51 50 47 45 42 38
36 36 36 35 39 42 44 46 50 53 55 55 54 56 60 65 68 70 71 68 67 67 66 72 72 74 62 45 64 77 63 56 55 53 52 50 50 51 50 49 46 44 40 33
31 32 34 35 37 39 44 47 49 50 50 51 55 59 58 60 65 68 65 68 68 70 69 69 74 71 44 50 74 64 51 50 48 48 48 48 49 48 47 46 44 42 35 30
30 32 34 36 38 42 44 45 48 50 47 49 53 57 59 62 65 65 64 64 62 66 64 63 86 50 49 64 66 53 48 45 45 46 46 49 47 47 45 43 41 36 31 28
31 32 35 37 40 42 44 46 48 51 48 49 53 56 58 61 59 60 61 63 62 63 65 75 77 48 68 70 55 48 46 46 48 47 49 48 46 45 43 39 35 31 28 25
32 34 36 37 39 43 44 45 47 44 46 48 51 54 58 60 60 58 55 55 58 62 68 72 43 62 69 66 52 49 49 49 49 49 49 49 46 44 41 37 33 30 25 22
32 34 35 37 41 44 44 44 44 43 47 48 51 54 56 56 54 56 58 55 58 56 72 71 71 65 67 62 56 51 49 52 53 54 51 50 46 43 40 36 31 27 22 19
33 34 36 36 38 42 44 44 43 42 43 44 45 47 51 55 53 47 49 53 57 66 71 71 71 65 62 59 60 61 59 55 55 53 49 49 45 42 38 34 28 23 18 15
34 34 36 38 43 43 42 42 43 42 44 44 44 46 45 45 46 47 50 52 56 64 68 69 67 65 61 57 58 59 59 59 57 54 50 46 44 40 36 32 25 20 16 14
34 36 37 36 39 39 39 40 42 43 42 44 45 45 46 45 46 48 50 54 56 63 65 67 66 64 60 56 56 55 58 57 52 50 47 43 43 40 34 29 24 19 16 13
37 36 38 39 36 34 36 37 40 39 39 42 43 43 44 45 47 50 52 54 57 60 62 64 64 62 58 55 53 52 50 49 49 50 47 44 41 41 37 31 26 21 18 14
Wind_Direction
325 326 327 325 324 323 315 311 319 320 322 326 331 336 340 342 342 340 340 341 341 341 341 342 344 343 342 341 341 339 336 335 335 336 337 335 331 327 323 318 313 308 303 300
327 328 326 324 319 320 318 317 313 315 318 329 341 343 341 341 341 340 340 341 341 341 341 343 344 343 342 341 340 337 334 333 334 335 335 333 330 327 323 319 316 312 307 302
325 335 333 329 339 336 334 337 334 331 336 343 340 340 340 339 339 340 341 341 341 341 342 344 344 343 341 340 338 335 333 333 333 333 333 333 331 328 325 321 316 313 309 304
324 331 329 340 344 342 334 334 333 328 331 336 338 339 339 338 341 342 342 341 341 342 343 344 344 343 341 340 339 336 334 333 333 333 334 333 332 331 328 324 319 314 309 305
326 325 324 333 341 340 337 335 337 332 336 340 340 339 339 348 346 342 342 342 342 343 344 344 344 343 340 339 338 337 335 334 334 334 333 333 333 332 330 324 320 316 310 305
323 321 323 334 341 345 344 332 351 345 341 339 340 335 341 344 342 341 342 342 343 344 344 344 344 342 340 339 338 337 335 334 335 335 334 333 333 332 330 327 324 317 313 310
312 318 323 333 339 345 333 334 343 341 340 338 336 337 339 340 341 342 342 343 344 345 344 343 343 341 340 339 337 336 335 336 336 336 335 334 333 332 331 328 323 319 312 310
319 318 320 339 341 330 334 337 337 338 338 337 338 338 339 340 341 341 343 344 345 344 343 342 342 341 339 338 337 337 337 337 337 337 337 335 334 334 333 332 327 318 303 294
312 318 327 323 332 333 335 334 335 336 339 339 339 339 340 340 342 342 344 344 344 344 342 342 342 341 339 338 338 337 337 337 337 337 337 337 336 337 338 342 281 280 280 284
316 319 314 321 327 331 334 336 339 340 340 340 340 340 340 341 342 343 344 344 344 344 342 342 342 341 340 339 338 338 337 337 337 336 335 335 339 344 337 270 274 274 272 274
308 313 318 322 327 333 337 340 341 342 342 342 341 341 343 342 342 343 344 345 345 344 343 342 341 341 341 340 340 339 338 338 336 333 334 328 329 281 268 265 264 270 268 272
314 324 322 328 335 338 337 339 342 342 342 344 345 343 344 342 344 345 345 347 346 345 343 343 343 343 343 343 343 341 339 338 331 320 315 299 282 276 272 270 274 273 271 272
316 329 333 336 339 341 341 342 344 344 344 344 346 345 345 343 346 346 349 347 346 345 345 344 344 344 345 345 344 341 339 333 321 305 295 287 279 281 284 285 280 274 277 280
330 333 330 333 333 343 344 345 346 347 348 347 346 346 347 346 347 348 348 347 347 347 346 347 347 347 347 346 344 341 339 307 305 298 285 282 282 280 279 281 279 281 285 284
331 335 338 343 345 345 346 345 345 345 346 346 348 348 350 348 349 348 349 350 349 349 349 350 349 349 349 347 345 342 325 305 300 292 287 282 281 278 278 278 274 274 281 277
335 340 343 340 340 344 345 345 344 345 347 346 348 350 351 351 351 350 351 352 350 350 351 351 351 351 351 350 344 337 309 298 298 292 287 284 281 280 280 279 274 274 274 266
331 330 335 336 339 342 344 346 347 347 347 349 351 353 352 351 351 352 353 354 354 354 355 356 353 354 355 349 326 309 306 298 295 291 285 283 282 280 279 278 271 272 268 263
340 343 344 345 344 344 346 347 348 349 350 352 355 355 353 352 352 353 354 356 356 358 0 358 358 358 0 310 306 311 301 295 293 290 286 283 283 282 279 276 270 271 269 264
348 349 352 352 352 351 349 348 348 352 354 356 355 354 355 354 354 355 357 357 358 359 0 1 359 1 312 309 316 310 299 296 293 292 290 286 287 287 283 277 273 272 268 267
351 352 353 352 352 350 348 349 350 352 357 358 356 355 356 356 356 357 359 360 2 2 2 4 347 310 311 316 318 309 303 299 297 296 295 297 294 292 287 279 275 275 270 269
344 349 348 349 349 349 348 350 351 350 357 358 356 357 357 357 360 1 1 2 5 5 5 359 331 311 321 324 318 312 308 306 305 303 305 304 300 299 294 289 285 280 274 272
344 344 345 348 347 346 350 352 353 357 359 359 359 359 359 359 1 3 6 7 7 7 3 359 12 318 326 327 321 318 316 315 313 312 311 311 307 304 299 295 288 283 277 273
343 343 344 344 343 342 349 353 355 358 356 358 359 360 1 2 4 5 6 11 9 11 355 357 328 323 328 329 327 324 322 324 323 322 318 317 312 308 303 299 293 289 279 272
342 342 343 347 349 346 347 351 354 359 0 1 2 5 5 5 8 16 13 11 12 4 351 347 334 329 329 329 333 335 335 331 330 328 322 323 319 315 312 307 301 297 287 276
339 343 344 343 342 345 347 351 354 358 359 1 5 9 12 14 14 14 15 15 14 5 356 344 335 334 334 331 334 338 339 340 338 336 332 329 328 324 321 317 311 306 297 279
337 340 343 346 344 346 349 352 353 356 358 1 5 10 13 16 18 16 16 13 14 5 1 353 344 341 335 332 334 336 341 342 340 340 339 337 340 340 335 332 327 319 313 298
334 340 340 341 346 351 350 352 352 354 359 2 5 11 14 17 17 15 13 11 10 5 2 355 347 343 337 333 332 334 335 337 341 344 345 343 344 348 347 343 340 333 329 320